sat.trackr.live / text

‹ back to catalog

STARLINK-34272

NORAD 64274 · 2025-120U

PAYLOAD ACTIVE UNKNOWN

§ Identity

Operator
Country
US
Launch date
2025-06-04
Launch site
AFWTR
Launch vehicle
Mass (kg)
RCS (m²)

Purposes: comms

External: N2YO · Heavens-Above · Gunter

§ Orbital elements

Epoch: 2026-05-25T02:46:22.226592Z

Period
94.10 min
Inclination
53.1599°
Eccentricity
0.0001252
Mean motion
15.30207273 rev/d
Perigee alt
474.3 km
Apogee alt
476.1 km
Semi-major
6,853.3 km
B*
4.0307e-4
RAAN
121.9562°
Arg perigee
109.9508°
Mean anomaly
250.1627°
Rev number
5,551

§ Raw data

STARLINK-342721 64274U 25120U   26145.11553503  .00011600  00000+0  40307-3 0  99982 64274  53.1599 121.9562 0001252 109.9508 250.1627 15.30207273 55514

JSON: /api/v1/satellites/64274 · /tle

For live sub-satellite position, see the globe view (requires WebGL).

§ Visibility from observer

Set your observer location to see the next 7 days of passes ≥ 10°. The values pass through the URL so the page stays shareable.

No JS? Fill the form by hand. The geolocation button needs JavaScript.